QPF
0.01 0.01 0.02 0.02 0.02 0.02 0.03 0.03 0.05 0.07 0.07 0.05 0.06 0.07 0.09 0.13 0.17 0.17 0.15 0.14 0.10 0.08 0.07 0.06 0.05 0.03 0.02 0.02 0.01 0.01 0.01 0.01 0.01 0.02 0.02 0.02 0.02 0.02
0.01 0.01 0.01 0.01 0.01 0.02 0.03 0.03 0.04 0.06 0.09 0.07 0.06 0.05 0.07 0.09 0.14 0.15 0.17 0.16 0.11 0.10 0.09 0.08 0.06 0.04 0.03 0.02 0.01 0.01 0.01 0.01 0.01 0.01 0.01 0.01 0.01 0.01
0.01 0.01 0.01 0.01 0.01 0.02 0.02 0.04 0.04 0.06 0.09 0.09 0.06 0.05 0.07 0.09 0.12 0.13 0.14 0.14 0.12 0.10 0.10 0.09 0.08 0.07 0.05 0.04 0.03 0.02 0.01 0.01 0.02 0.01 0.01 0.01 0.01 0.01
0.01 0.01 0.01 0.01 0.02 0.02 0.03 0.04 0.05 0.05 0.06 0.10 0.09 0.08 0.07 0.09 0.11 0.12 0.12 0.12 0.13 0.13 0.11 0.10 0.08 0.08 0.07 0.06 0.05 0.03 0.02 0.02 0.02 0.01 0.01 0.01 0.01 0.00
0.01 0.01 0.01 0.02 0.02 0.02 0.02 0.03 0.05 0.05 0.06 0.08 0.10 0.10 0.10 0.10 0.13 0.14 0.15 0.13 0.11 0.13 0.12 0.10 0.09 0.08 0.08 0.08 0.07 0.05 0.03 0.03 0.02 0.01 0.01 0.00 0.00 0.00
0.01 0.02 0.02 0.02 0.02 0.02 0.02 0.03 0.04 0.06 0.08 0.08 0.09 0.11 0.13 0.14 0.16 0.18 0.19 0.18 0.14 0.11 0.10 0.09 0.08 0.08 0.07 0.08 0.08 0.06 0.04 0.03 0.02 0.02 0.01 0.00 0.00 0.00
0.02 0.02 0.02 0.01 0.01 0.02 0.01 0.02 0.04 0.06 0.07 0.08 0.09 0.12 0.16 0.19 0.18 0.20 0.21 0.21 0.19 0.15 0.11 0.08 0.07 0.06 0.06 0.06 0.07 0.07 0.05 0.03 0.02 0.02 0.01 0.00 0.00 0.00
0.03 0.03 0.03 0.02 0.01 0.01 0.00 0.01 0.03 0.06 0.08 0.08 0.09 0.11 0.16 0.19 0.20 0.22 0.23 0.23 0.21 0.18 0.14 0.11 0.08 0.06 0.05 0.05 0.04 0.06 0.06 0.04 0.03 0.02 0.01 0.00 0.00 0.00
0.04 0.04 0.03 0.02 0.02 0.02 0.02 0.02 0.02 0.02 0.05 0.08 0.09 0.10 0.14 0.19 0.21 0.21 0.25 0.27 0.24 0.19 0.16 0.15 0.12 0.09 0.06 0.06 0.06 0.04 0.04 0.04 0.02 0.02 0.01 0.01 0.00 0.00
0.03 0.04 0.04 0.04 0.03 0.03 0.04 0.04 0.04 0.04 0.04 0.06 0.07 0.09 0.10 0.15 0.21 0.23 0.24 0.30 0.33 0.29 0.23 0.18 0.14 0.12 0.09 0.06 0.06 0.05 0.03 0.03 0.02 0.01 0.01 0.01 0.00 0.00
0.02 0.03 0.03 0.04 0.03 0.02 0.03 0.05 0.05 0.06 0.04 0.05 0.06 0.07 0.08 0.09 0.16 0.23 0.29 0.33 0.39 0.38 0.30 0.21 0.15 0.12 0.10 0.08 0.07 0.05 0.04 0.02 0.02 0.01 0.01 0.00 0.00 0.00
0.02 0.03 0.02 0.02 0.02 0.01 0.03 0.05 0.06 0.06 0.06 0.05 0.04 0.06 0.07 0.07 0.10 0.17 0.24 0.30 0.33 0.39 0.35 0.26 0.18 0.12 0.11 0.09 0.06 0.05 0.04 0.03 0.02 0.01 0.01 0.00 0.00 0.00
0.02 0.02 0.02 0.00 0.00 0.00 0.01 0.04 0.06 0.07 0.10 0.09 0.08 0.08 0.09 0.10 0.09 0.13 0.20 0.26 0.30 0.29 0.30 0.28 0.23 0.15 0.09 0.07 0.07 0.06 0.04 0.03 0.01 0.01 0.01 0.01 0.00 0.00
0.01 0.02 0.02 0.01 0.00 0.00 0.00 0.01 0.01 0.03 0.07 0.09 0.08 0.08 0.09 0.09 0.10 0.11 0.16 0.19 0.24 0.26 0.27 0.28 0.24 0.17 0.11 0.07 0.05 0.05 0.05 0.03 0.02 0.01 0.00 0.01 0.00 0.00
0.01 0.01 0.01 0.01 0.01 0.01 0.01 0.00 0.01 0.03 0.06 0.08 0.07 0.07 0.09 0.10 0.12 0.12 0.14 0.19 0.20 0.23 0.26 0.26 0.25 0.20 0.15 0.10 0.07 0.05 0.04 0.04 0.02 0.01 0.00 0.00 0.00 0.00
0.02 0.02 0.01 0.01 0.01 0.02 0.02 0.02 0.02 0.04 0.07 0.08 0.09 0.09 0.10 0.12 0.13 0.13 0.13 0.17 0.21 0.22 0.23 0.23 0.24 0.23 0.17 0.13 0.10 0.07 0.05 0.03 0.02 0.01 0.00 0.00 0.00 0.00
0.02 0.03 0.04 0.04 0.05 0.05 0.07 0.07 0.06 0.06 0.06 0.09 0.11 0.11 0.10 0.10 0.11 0.12 0.13 0.14 0.16 0.21 0.23 0.23 0.23 0.24 0.21 0.15 0.12 0.09 0.06 0.04 0.02 0.01 0.00 0.00 0.00 0.00
0.02 0.03 0.04 0.06 0.06 0.07 0.07 0.08 0.08 0.10 0.10 0.10 0.11 0.11 0.11 0.10 0.10 0.10 0.12 0.12 0.12 0.15 0.19 0.20 0.22 0.26 0.25 0.22 0.17 0.11 0.08 0.05 0.03 0.02 0.01 0.00 0.00 0.00
0.03 0.04 0.05 0.05 0.06 0.07 0.08 0.08 0.08 0.09 0.11 0.11 0.11 0.11 0.11 0.12 0.10 0.10 0.09 0.09 0.10 0.12 0.15 0.17 0.17 0.19 0.18 0.16 0.16 0.12 0.09 0.06 0.05 0.03 0.02 0.01 0.00 0.00
0.04 0.04 0.05 0.06 0.06 0.06 0.08 0.09 0.08 0.09 0.10 0.11 0.11 0.11 0.11 0.12 0.10 0.10 0.09 0.07 0.08 0.09 0.11 0.14 0.14 0.13 0.14 0.13 0.12 0.11 0.08 0.07 0.05 0.04 0.03 0.02 0.01 0.00
0.05 0.06 0.06 0.07 0.06 0.06 0.07 0.09 0.08 0.08 0.08 0.10 0.11 0.11 0.10 0.10 0.10 0.09 0.09 0.07 0.07 0.08 0.08 0.10 0.12 0.13 0.15 0.17 0.16 0.14 0.11 0.08 0.08 0.06 0.04 0.03 0.01 0.00
0.04 0.05 0.07 0.08 0.08 0.08 0.07 0.08 0.08 0.07 0.07 0.09 0.09 0.09 0.09 0.08 0.09 0.08 0.07 0.06 0.06 0.07 0.09 0.10 0.11 0.14 0.16 0.15 0.15 0.15 0.14 0.12 0.11 0.11 0.08 0.05 0.03 0.02
0.04 0.05 0.06 0.07 0.07 0.08 0.07 0.06 0.07 0.07 0.07 0.07 0.07 0.07 0.07 0.07 0.07 0.07 0.06 0.06 0.06 0.07 0.10 0.11 0.10 0.12 0.16 0.16 0.16 0.14 0.14 0.12 0.11 0.10 0.08 0.05 0.04 0.03
MSLP
1013.26 1013.18 1013.11 1013.03 1012.91 1012.75 1012.53 1012.25 1011.91 1011.51 1011.08 1010.61 1010.13 1009.64 1009.17 1008.73 1008.37 1008.11 1007.98 1008.03 1008.27 1008.71 1009.33 1010.11 1011.00 1011.95 1012.91 1013.82 1014.65 1015.39 1016.03 1016.58 1017.08 1017.54 1018.00 1018.45 1018.91 1019.36
1012.84 1012.74 1012.65 1012.54 1012.42 1012.26 1012.05 1011.79 1011.48 1011.13 1010.73 1010.30 1009.83 1009.34 1008.86 1008.39 1007.98 1007.65 1007.46 1007.43 1007.61 1007.98 1008.55 1009.29 1010.15 1011.09 1012.04 1012.96 1013.80 1014.55 1015.21 1015.79 1016.30 1016.79 1017.26 1017.74 1018.23 1018.72
1012.40 1012.27 1012.14 1012.00 1011.85 1011.67 1011.47 1011.23 1010.95 1010.64 1010.30 1009.91 1009.49 1009.04 1008.57 1008.11 1007.68 1007.33 1007.09 1007.01 1007.11 1007.42 1007.92 1008.60 1009.41 1010.31 1011.24 1012.14 1012.99 1013.75 1014.43 1015.03 1015.57 1016.08 1016.59 1017.10 1017.62 1018.15
1011.93 1011.75 1011.58 1011.41 1011.23 1011.04 1010.83 1010.60 1010.36 1010.10 1009.82 1009.50 1009.15 1008.76 1008.34 1007.92 1007.50 1007.14 1006.88 1006.75 1006.79 1007.02 1007.44 1008.04 1008.78 1009.62 1010.50 1011.38 1012.22 1012.99 1013.68 1014.31 1014.88 1015.43 1015.98 1016.53 1017.10 1017.67
1011.40 1011.20 1011.00 1010.79 1010.58 1010.38 1010.17 1009.96 1009.76 1009.55 1009.34 1009.10 1008.83 1008.52 1008.18 1007.81 1007.44 1007.09 1006.81 1006.65 1006.63 1006.78 1007.12 1007.62 1008.27 1009.03 1009.85 1010.69 1011.51 1012.28 1012.99 1013.65 1014.27 1014.86 1015.45 1016.05 1016.66 1017.28
1010.82 1010.60 1010.38 1010.16 1009.93 1009.72 1009.52 1009.34 1009.17 1009.02 1008.88 1008.73 1008.55 1008.34 1008.08 1007.78 1007.46 1007.15 1006.87 1006.67 1006.60 1006.67 1006.91 1007.32 1007.87 1008.54 1009.30 1010.09 1010.89 1011.66 1012.40 1013.09 1013.75 1014.40 1015.04 1015.68 1016.34 1016.99
1010.20 1009.97 1009.75 1009.52 1009.30 1009.09 1008.91 1008.75 1008.63 1008.54 1008.46 1008.39 1008.31 1008.19 1008.02 1007.80 1007.54 1007.26 1007.00 1006.78 1006.66 1006.66 1006.81 1007.12 1007.58 1008.17 1008.85 1009.61 1010.39 1011.18 1011.95 1012.69 1013.40 1014.10 1014.78 1015.46 1016.15 1016.83
1009.54 1009.32 1009.11 1008.90 1008.69 1008.50 1008.34 1008.22 1008.14 1008.10 1008.08 1008.08 1008.08 1008.04 1007.95 1007.81 1007.62 1007.38 1007.13 1006.91 1006.75 1006.70 1006.77 1007.00 1007.38 1007.90 1008.54 1009.27 1010.06 1010.87 1011.68 1012.47 1013.24 1013.99 1014.71 1015.42 1016.11 1016.79
1008.86 1008.67 1008.48 1008.29 1008.11 1007.95 1007.82 1007.72 1007.68 1007.67 1007.71 1007.76 1007.82 1007.85 1007.84 1007.76 1007.63 1007.44 1007.21 1006.99 1006.82 1006.73 1006.76 1006.93 1007.26 1007.75 1008.37 1009.10 1009.91 1010.76 1011.62 1012.47 1013.29 1014.08 1014.83 1015.54 1016.22 1016.88
1008.19 1008.03 1007.86 1007.71 1007.55 1007.42 1007.31 1007.24 1007.21 1007.24 1007.30 1007.39 1007.50 1007.58 1007.62 1007.61 1007.52 1007.38 1007.19 1007.00 1006.83 1006.73 1006.74 1006.89 1007.20 1007.68 1008.30 1009.06 1009.91 1010.81 1011.73 1012.64 1013.51 1014.33 1015.09 1015.80 1016.45 1017.05
1007.55 1007.41 1007.27 1007.13 1007.00 1006.88 1006.79 1006.73 1006.71 1006.75 1006.83 1006.95 1007.08 1007.20 1007.28 1007.32 1007.29 1007.19 1007.05 1006.89 1006.75 1006.67 1006.69 1006.85 1007.17 1007.66 1008.32 1009.11 1010.01 1010.97 1011.95 1012.91 1013.82 1014.66 1015.42 1016.09 1016.69 1017.23
1006.97 1006.83 1006.69 1006.56 1006.43 1006.32 1006.22 1006.16 1006.15 1006.19 1006.27 1006.40 1006.55 1006.70 1006.82 1006.90 1006.93 1006.89 1006.80 1006.69 1006.59 1006.55 1006.60 1006.79 1007.14 1007.66 1008.35 1009.18 1010.12 1011.13 1012.15 1013.15 1014.08 1014.93 1015.67 1016.31 1016.85 1017.32
1006.46 1006.30 1006.14 1005.99 1005.85 1005.72 1005.61 1005.54 1005.52 1005.55 1005.64 1005.77 1005.94 1006.12 1006.28 1006.41 1006.48 1006.50 1006.48 1006.43 1006.38 1006.39 1006.48 1006.71 1007.08 1007.63 1008.34 1009.20 1010.17 1011.20 1012.25 1013.26 1014.19 1015.03 1015.75 1016.34 1016.83 1017.23
1006.01 1005.81 1005.61 1005.42 1005.24 1005.08 1004.95 1004.86 1004.83 1004.85 1004.94 1005.09 1005.28 1005.49 1005.70 1005.88 1006.01 1006.10 1006.14 1006.15 1006.17 1006.22 1006.35 1006.61 1007.00 1007.56 1008.27 1009.13 1010.09 1011.11 1012.14 1013.14 1014.06 1014.87 1015.55 1016.11 1016.56 1016.92
1005.63 1005.36 1005.10 1004.86 1004.63 1004.43 1004.27 1004.16 1004.11 1004.14 1004.24 1004.41 1004.63 1004.88 1005.14 1005.38 1005.58 1005.73 1005.84 1005.92 1005.99 1006.08 1006.25 1006.51 1006.90 1007.44 1008.13 1008.94 1009.86 1010.84 1011.83 1012.78 1013.66 1014.43 1015.08 1015.61 1016.03 1016.38
1005.28 1004.95 1004.62 1004.31 1004.03 1003.78 1003.60 1003.47 1003.42 1003.46 1003.58 1003.77 1004.03 1004.33 1004.65 1004.95 1005.22 1005.44 1005.62 1005.75 1005.87 1006.01 1006.18 1006.44 1006.81 1007.31 1007.94 1008.68 1009.53 1010.43 1011.34 1012.22 1013.04 1013.77 1014.39 1014.90 1015.32 1015.67
1004.95 1004.55 1004.16 1003.80 1003.47 1003.19 1002.98 1002.85 1002.81 1002.86 1003.00 1003.23 1003.53 1003.88 1004.25 1004.61 1004.94 1005.23 1005.47 1005.66 1005.83 1005.99 1006.17 1006.42 1006.76 1007.19 1007.75 1008.40 1009.15 1009.95 1010.77 1011.57 1012.33 1013.01 1013.60 1014.11 1014.54 1014.92
1004.61 1004.16 1003.73 1003.33 1002.98 1002.69 1002.47 1002.35 1002.31 1002.38 1002.55 1002.81 1003.14 1003.53 1003.94 1004.35 1004.73 1005.08 1005.37 1005.61 1005.81 1006.00 1006.20 1006.44 1006.74 1007.12 1007.60 1008.17 1008.81 1009.51 1010.24 1010.96 1011.65 1012.28 1012.86 1013.37 1013.83 1014.26
1004.24 1003.78 1003.34 1002.93 1002.58 1002.30 1002.09 1001.98 1001.96 1002.05 1002.23 1002.50 1002.85 1003.25 1003.68 1004.12 1004.53 1004.91 1005.25 1005.53 1005.78 1006.00 1006.22 1006.46 1006.74 1007.09 1007.51 1008.01 1008.58 1009.19 1009.84 1010.49 1011.12 1011.73 1012.29 1012.82 1013.31 1013.78
1003.83 1003.39 1002.98 1002.61 1002.29 1002.03 1001.85 1001.76 1001.76 1001.85 1002.02 1002.29 1002.62 1003.01 1003.43 1003.86 1004.28 1004.68 1005.04 1005.37 1005.65 1005.92 1006.17 1006.44 1006.74 1007.08 1007.48 1007.95 1008.46 1009.03 1009.62 1010.22 1010.82 1011.40 1011.96 1012.50 1013.02 1013.54
1003.40 1003.02 1002.67 1002.36 1002.10 1001.90 1001.76 1001.69 1001.69 1001.77 1001.92 1002.15 1002.44 1002.78 1003.15 1003.54 1003.94 1004.33 1004.71 1005.06 1005.39 1005.70 1006.01 1006.33 1006.67 1007.05 1007.47 1007.93 1008.44 1008.98 1009.55 1010.13 1010.70 1011.28 1011.84 1012.38 1012.93 1013.47
1002.98 1002.69 1002.43 1002.21 1002.03 1001.89 1001.79 1001.74 1001.75 1001.80 1001.91 1002.07 1002.28 1002.54 1002.83 1003.16 1003.50 1003.86 1004.23 1004.59 1004.96 1005.33 1005.71 1006.10 1006.51 1006.94 1007.41 1007.91 1008.44 1008.99 1009.56 1010.13 1010.70 1011.27 1011.83 1012.39 1012.94 1013.50
1002.61 1002.43 1002.28 1002.16 1002.06 1001.99 1001.94 1001.92 1001.91 1001.93 1001.97 1002.05 1002.16 1002.31 1002.50 1002.73 1003.00 1003.31 1003.65 1004.01 1004.41 1004.82 1005.26 1005.73 1006.21 1006.72 1007.25 1007.81 1008.37 1008.95 1009.53 1010.12 1010.69 1011.26 1011.81 1012.36 1012.91 1013.47
Thickness
5638 5640 5640 5644 5646 5648 5650 5653 5653 5657 5667 5677 5681 5687 5690 5693 5697 5701 5705 5709 5711 5713 5714 5716 5717 5719 5720 5721 5721 5721 5721 5720 5720 5719 5719 5718 5718 5717
5628 5629 5631 5635 5638 5639 5641 5644 5647 5649 5656 5666 5671 5678 5681 5687 5690 5695 5700 5703 5706 5708 5710 5713 5715 5717 5718 5719 5720 5720 5720 5720 5720 5719 5719 5718 5718 5717
5621 5622 5623 5624 5627 5632 5634 5636 5639 5642 5646 5656 5663 5669 5671 5675 5682 5688 5693 5697 5701 5703 5706 5709 5711 5713 5716 5717 5718 5719 5719 5719 5718 5718 5718 5717 5717 5717
5613 5614 5615 5617 5618 5620 5624 5627 5630 5634 5637 5643 5651 5657 5662 5668 5673 5679 5686 5691 5695 5698 5701 5704 5706 5709 5712 5714 5715 5716 5716 5716 5717 5717 5717 5717 5717 5717
5605 5605 5606 5608 5609 5611 5613 5618 5622 5627 5630 5634 5641 5648 5653 5659 5664 5670 5677 5682 5687 5691 5693 5697 5700 5703 5706 5708 5710 5712 5713 5713 5714 5714 5715 5715 5715 5716
5596 5597 5598 5599 5600 5601 5604 5607 5611 5615 5620 5625 5632 5639 5644 5649 5654 5660 5665 5672 5677 5683 5686 5689 5692 5695 5698 5702 5705 5707 5708 5709 5710 5711 5711 5712 5713 5713
5588 5589 5590 5590 5590 5590 5594 5598 5601 5605 5611 5616 5622 5628 5635 5639 5644 5650 5656 5662 5667 5673 5677 5681 5685 5688 5691 5694 5698 5700 5703 5704 5705 5706 5707 5708 5709 5710
5580 5581 5582 5581 5581 5579 5580 5582 5585 5591 5599 5605 5612 5618 5624 5630 5636 5641 5646 5652 5657 5664 5668 5672 5678 5682 5686 5689 5692 5694 5696 5698 5700 5701 5703 5704 5705 5706
5573 5573 5574 5578 5575 5576 5576 5574 5577 5579 5583 5591 5600 5606 5614 5621 5626 5632 5638 5644 5651 5657 5660 5663 5668 5673 5677 5680 5683 5686 5689 5691 5693 5695 5697 5698 5700 5701
5567 5566 5566 5567 5568 5568 5569 5572 5574 5577 5579 5582 5590 5598 5603 5611 5617 5623 5630 5635 5641 5647 5653 5654 5658 5662 5666 5669 5672 5677 5680 5683 5686 5688 5690 5692 5694 5695
5562 5561 5560 5559 5557 5555 5557 5561 5565 5569 5573 5576 5581 5586 5591 5598 5606 5613 5620 5626 5632 5637 5644 5648 5650 5652 5655 5658 5661 5666 5670 5673 5677 5680 5682 5685 5686 5688
5557 5556 5552 5549 5547 5545 5548 5552 5555 5561 5566 5571 5573 5577 5583 5589 5596 5604 5613 5619 5626 5630 5636 5640 5642 5645 5645 5648 5652 5656 5659 5663 5667 5670 5673 5677 5679 5682
5550 5549 5549 5542 5538 5535 5536 5541 5546 5549 5555 5560 5566 5572 5578 5584 5591 5599 5606 5614 5620 5626 5631 5634 5637 5641 5644 5642 5644 5648 5652 5655 5658 5660 5664 5667 5672 5677
5540 5541 5540 5534 5530 5527 5529 5532 5534 5536 5545 5551 5557 5564 5571 5579 5586 5593 5600 5605 5612 5619 5624 5629 5633 5637 5638 5638 5639 5640 5643 5647 5651 5655 5656 5658 5662 5667
5534 5532 5527 5524 5522 5523 5522 5523 5525 5532 5539 5545 5551 5557 5564 5571 5578 5584 5590 5595 5601 5608 5614 5620 5626 5629 5634 5637 5637 5636 5637 5639 5644 5648 5651 5653 5657 5661
5529 5526 5521 5518 5517 5518 5521 5522 5525 5531 5535 5540 5545 5550 5556 5562 5568 5576 5581 5586 5591 5598 5604 5610 5616 5622 5626 5630 5632 5632 5635 5636 5638 5642 5645 5648 5651 5656
5522 5521 5522 5522 5522 5522 5523 5524 5526 5527 5530 5534 5538 5543 5549 5555 5562 5568 5574 5580 5586 5592 5595 5600 5606 5612 5618 5623 5625 5627 5629 5631 5632 5635 5638 5641 5645 5650
5513 5520 5520 5520 5521 5522 5523 5523 5524 5526 5528 5530 5534 5538 5544 5550 5556 5561 5567 5573 5580 5586 5590 5594 5598 5601 5605 5610 5617 5621 5624 5626 5628 5628 5632 5636 5639 5643
5515 5519 5520 5520 5521 5522 5522 5523 5525 5525 5526 5528 5531 5535 5540 5546 5551 5556 5561 5567 5574 5580 5584 5588 5592 5596 5601 5605 5607 5613 5619 5621 5622 5622 5626 5632 5635 5637
5522 5522 5522 5521 5521 5522 5522 5523 5524 5524 5524 5526 5529 5532 5537 5542 5547 5552 5557 5563 5569 5574 5578 5582 5587 5593 5599 5602 5604 5605 5610 5615 5617 5618 5621 5625 5628 5628
5528 5526 5524 5523 5522 5522 5523 5523 5523 5524 5525 5525 5527 5530 5534 5539 5544 5549 5554 5557 5564 5570 5575 5579 5584 5587 5592 5596 5598 5600 5602 5605 5611 5615 5616 5619 5620 5622
5530 5528 5527 5525 5524 5523 5523 5523 5524 5525 5525 5526 5528 5531 5534 5538 5542 5547 5552 5556 5561 5567 5572 5575 5577 5580 5585 5590 5594 5595 5596 5596 5598 5603 5607 5612 5619 5622
5531 5529 5528 5527 5526 5523 5523 5523 5525 5526 5527 5528 5530 5531 5534 5537 5542 5546 5550 5554 5559 5563 5567 5570 5572 5576 5580 5585 5588 5589 5590 5590 5593 5594 5597 5600 5608 5614